Weather History for Keokuk, IA

Change the Weather History Date:

Thursday, February 27, 2014

  Actual Average Record
Temperature  
Mean Temperature 14 °F -  
Max Temperature 24 °F 45 °F 73 °F (1976)
Min Temperature 5 °F 27 °F -7 °F (1934)
Degree Days  
Heating Degree Days 50    
Moisture  
Dew Point -4 °F    
Average Humidity 50    
Maximum Humidity 68    
Minimum Humidity 34    
Precipitation  
Precipitation 0.00 in - - ()
Sea Level Pressure  
Sea Level Pressure 30.10 in    
Wind  
Wind Speed 13 mph (North)    
Max Wind Speed 21 mph    
Max Gust Speed 32 mph    
Visibility 10 miles    
Events Snow    
Averages and records for this station are not official NWS values.
T = Trace of Precipitation, MM = Missing Value Source: NWS Daily Summary

Daily Weather History Graph

Daily Weather History Graph

Search for Another Location

Airport:

Trip Planner

Search our weather history database for the weather conditions in past years. The results will help you decide how hot, cold, wet, or windy it might be!

Date:

Astronomy

Feb. 27, 2014 Rise Set
Actual Time 6:42 AM CST 5:54 PM CST
Civil Twilight 6:14 AM CST 6:22 PM CST
Nautical Twilight 5:43 AM CST 6:54 PM CST
Astronomical Twilight 5:11 AM CST 7:25 PM CST
Moon 5:15 AM CST (2/27) 4:20 PM CST (2/27)
Length of Visible Light 12h 07m
Length of Day
11h 12m
Waning Crescent, 4% of the Moon is Illuminated
Feb 27
Waning Crescent
Mar 1
New
Mar 8
First Quarter
Mar 16
Full
Mar 23
Last Quarter

Hourly Weather History & Observations

Time (CST) Temp. Windchill Dew Point Humidity Pressure Visibility Wind Dir Wind Speed Gust Speed Precip Events Conditions
12:15 AM 24.8 °F 11.9 °F 14.0 °F 64% 29.86 in 10.0 mi West 16.1 mph 21.9 mph N/A   Clear
12:35 AM 24.8 °F 11.5 °F 14.0 °F 64% 29.87 in 10.0 mi WNW 17.3 mph 23.0 mph N/A   Clear
12:55 AM 24.8 °F 13.4 °F 12.2 °F 59% 29.88 in 10.0 mi NW 12.7 mph 21.9 mph N/A   Mostly Cloudy
1:15 AM 24.8 °F 10.7 °F 10.4 °F 54% 29.89 in 10.0 mi NW 19.6 mph 27.6 mph N/A   Overcast
1:35 AM 23.0 °F 8.0 °F 10.4 °F 59% 29.90 in 10.0 mi NW 20.7 mph 32.2 mph N/A   Overcast
1:55 AM 21.2 °F 7.8 °F 10.4 °F 63% 29.92 in 10.0 mi NNW 15.0 mph 25.3 mph N/A   Mostly Cloudy
2:15 AM 17.6 °F 3.7 °F 8.6 °F 68% 29.94 in 10.0 mi NNW 13.8 mph 25.3 mph N/A Snow Light Snow
2:35 AM 15.8 °F 0.9 °F 5.0 °F 62% 29.95 in 10.0 mi NNW 15.0 mph - N/A   Overcast
2:55 AM 14.0 °F 1.2 °F 3.2 °F 62% 29.96 in 10.0 mi NNW 10.4 mph 20.7 mph N/A   Mostly Cloudy
3:15 AM 14.0 °F -3.9 °F 3.2 °F 62% 29.97 in 10.0 mi NW 20.7 mph - N/A   Scattered Clouds
3:35 AM 12.2 °F -5.3 °F -0.4 °F 57% 29.97 in 10.0 mi NNW 18.4 mph 28.8 mph N/A   Clear
3:55 AM 12.2 °F -4.3 °F -0.4 °F 57% 29.98 in 10.0 mi NW 16.1 mph 23.0 mph N/A   Clear
4:15 AM 12.2 °F -3.1 °F -0.4 °F 57% 29.99 in 10.0 mi NW 13.8 mph 23.0 mph N/A   Clear
4:35 AM 12.2 °F -4.8 °F -0.4 °F 57% 30.00 in 10.0 mi NW 17.3 mph - N/A   Clear
4:55 AM 10.4 °F -6.0 °F -2.2 °F 57% 30.01 in 10.0 mi NW 15.0 mph 24.2 mph N/A   Clear
5:15 AM 10.4 °F -6.0 °F -4.0 °F 52% 30.02 in 10.0 mi NW 15.0 mph 20.7 mph N/A   Clear
5:35 AM 8.6 °F -8.3 °F -5.8 °F 52% 30.04 in 10.0 mi NW 15.0 mph 26.5 mph N/A   Clear
5:55 AM 8.6 °F -8.3 °F -5.8 °F 52% 30.05 in 10.0 mi NW 15.0 mph - N/A   Clear
6:15 AM 6.8 °F -10.0 °F -5.8 °F 56% 30.07 in 10.0 mi NNW 13.8 mph 20.7 mph N/A   Clear
6:35 AM 6.8 °F -6.9 °F -5.8 °F 56% 30.08 in 10.0 mi NW 9.2 mph 16.1 mph N/A   Clear
6:55 AM 6.8 °F -10.0 °F -5.8 °F 56% 30.09 in 10.0 mi NNW 13.8 mph 19.6 mph N/A   Clear
7:15 AM 6.8 °F -11.3 °F -5.8 °F 56% 30.10 in 10.0 mi NNW 16.1 mph - N/A   Clear
7:35 AM 5.0 °F -9.1 °F -7.6 °F 56% 30.13 in 10.0 mi NNW 9.2 mph 23.0 mph N/A   Clear
7:55 AM 6.8 °F -10.0 °F -7.6 °F 52% 30.14 in 10.0 mi NNW 13.8 mph 20.7 mph N/A   Clear
8:15 AM 6.8 °F -11.8 °F -7.6 °F 52% 30.15 in 10.0 mi NNW 17.3 mph 23.0 mph N/A   Clear
8:35 AM 6.8 °F -10.7 °F -9.4 °F 48% 30.16 in 10.0 mi NNW 15.0 mph 21.9 mph N/A   Clear
8:55 AM 6.8 °F -8.6 °F -9.4 °F 48% 30.17 in 10.0 mi North 11.5 mph 19.6 mph N/A   Clear
9:15 AM 6.8 °F -9.3 °F -7.6 °F 52% 30.18 in 10.0 mi North 12.7 mph - N/A   Clear
9:35 AM 8.6 °F -7.0 °F -9.4 °F 44% 30.20 in 10.0 mi North 12.7 mph 18.4 mph N/A   Clear
9:55 AM 8.6 °F -6.3 °F -9.4 °F 44% 30.20 in 10.0 mi NNW 11.5 mph 19.6 mph N/A   Clear
10:15 AM 8.6 °F -7.0 °F -7.6 °F 48% 30.21 in 10.0 mi WNW 12.7 mph - N/A   Clear
10:35 AM 8.6 °F -7.0 °F -9.4 °F 44% 30.21 in 10.0 mi NNW 12.7 mph - N/A   Clear
10:55 AM 10.4 °F -2.4 °F -7.6 °F 44% 30.20 in 10.0 mi North 9.2 mph 17.3 mph N/A   Clear
11:15 AM 10.4 °F -4.1 °F -7.6 °F 44% 30.19 in 10.0 mi NNW 11.5 mph - N/A   Clear
11:35 AM 10.4 °F 0.8 °F -7.6 °F 44% 30.19 in 10.0 mi Variable 5.8 mph 16.1 mph N/A   Clear
11:55 AM 10.4 °F -1.5 °F -9.4 °F 41% 30.19 in 10.0 mi NNE 8.1 mph 16.1 mph N/A   Clear
12:15 PM 12.2 °F -1.0 °F -11.2 °F 34% 30.18 in 10.0 mi North 10.4 mph - N/A   Clear
12:35 PM 12.2 °F 1.7 °F -9.4 °F 38% 30.18 in 10.0 mi NNW 6.9 mph 12.7 mph N/A   Clear
12:55 PM 12.2 °F 1.7 °F -7.6 °F 41% 30.17 in 10.0 mi North 6.9 mph - N/A   Clear
1:15 PM 14.0 °F 2.0 °F -5.8 °F 41% 30.17 in 10.0 mi North 9.2 mph - N/A   Clear
1:35 PM 14.0 °F 2.9 °F -7.6 °F 38% 30.15 in 10.0 mi NNW 8.1 mph 13.8 mph N/A   Clear
1:55 PM 14.0 °F 2.9 °F -9.4 °F 35% 30.15 in 10.0 mi NE 8.1 mph - N/A   Clear
2:15 PM 14.0 °F 2.0 °F -9.4 °F 35% 30.15 in 10.0 mi NNE 9.2 mph - N/A   Clear
2:35 PM 14.0 °F 5.1 °F -9.4 °F 35% 30.14 in 10.0 mi North 5.8 mph - N/A   Clear
2:55 PM 14.0 °F 3.9 °F -7.6 °F 38% 30.14 in 10.0 mi North 6.9 mph - N/A   Clear
3:15 PM 14.0 °F - -7.6 °F 38% 30.15 in 10.0 mi Calm Calm - N/A   Clear
3:35 PM 15.8 °F 8.6 °F -7.6 °F 35% 30.14 in 10.0 mi Variable 4.6 mph - N/A   Clear
3:55 PM 15.8 °F 7.2 °F -7.6 °F 35% 30.14 in 10.0 mi NNE 5.8 mph - N/A   Clear
4:15 PM 14.0 °F 3.9 °F -9.4 °F 35% 30.14 in 10.0 mi NNW 6.9 mph - N/A   Clear
4:35 PM 15.8 °F 8.6 °F -7.6 °F 35% 30.14 in 10.0 mi NNW 4.6 mph - N/A   Clear
4:55 PM 14.0 °F 3.9 °F -7.6 °F 38% 30.14 in 10.0 mi NNE 6.9 mph - N/A   Clear
5:15 PM 14.0 °F 6.5 °F -7.6 °F 38% 30.14 in 10.0 mi NNE 4.6 mph - N/A   Scattered Clouds
5:35 PM 14.0 °F 6.5 °F -5.8 °F 41% 30.13 in 10.0 mi NNE 4.6 mph - N/A   Scattered Clouds
5:55 PM 12.2 °F - -5.8 °F 45% 30.13 in 10.0 mi Calm Calm - N/A   Mostly Cloudy
6:15 PM 12.2 °F 1.7 °F -4.0 °F 48% 30.14 in 10.0 mi East 6.9 mph - N/A   Overcast
6:35 PM 12.2 °F 1.7 °F -4.0 °F 48% 30.15 in 10.0 mi East 6.9 mph - N/A   Overcast
6:55 PM 12.2 °F 1.7 °F -4.0 °F 48% 30.14 in 10.0 mi ENE 6.9 mph - N/A   Overcast
7:15 PM 12.2 °F -0.2 °F -4.0 °F 48% 30.14 in 10.0 mi ENE 9.2 mph - N/A   Overcast
7:35 PM 12.2 °F -0.2 °F -4.0 °F 48% 30.12 in 10.0 mi ENE 9.2 mph - N/A   Overcast
7:55 PM 12.2 °F -0.2 °F -4.0 °F 48% 30.13 in 10.0 mi ENE 9.2 mph - N/A   Overcast
8:15 PM 12.2 °F 0.7 °F -4.0 °F 48% 30.12 in 10.0 mi ENE 8.1 mph - N/A   Mostly Cloudy
8:35 PM 12.2 °F 1.7 °F -2.2 °F 53% 30.13 in 10.0 mi ENE 6.9 mph - N/A   Partly Cloudy
8:55 PM 10.4 °F 0.8 °F -2.2 °F 57% 30.14 in 10.0 mi ENE 5.8 mph - N/A   Partly Cloudy
9:15 PM 10.4 °F 0.8 °F -2.2 °F 57% 30.14 in 10.0 mi ENE 5.8 mph - N/A   Partly Cloudy
9:35 PM 10.4 °F -0.4 °F -2.2 °F 57% 30.15 in 10.0 mi East 6.9 mph - N/A   Scattered Clouds
9:55 PM 10.4 °F -1.5 °F -2.2 °F 57% 30.15 in 10.0 mi East 8.1 mph - N/A   Mostly Cloudy
10:15 PM 8.6 °F -3.7 °F -0.4 °F 67% 30.15 in - East 8.1 mph - N/A   Mostly Cloudy
10:35 PM 8.6 °F -2.6 °F -0.4 °F 67% 30.14 in 10.0 mi East 6.9 mph - N/A   Scattered Clouds
10:55 PM 8.6 °F -4.7 °F -0.4 °F 67% 30.13 in 10.0 mi East 9.2 mph - N/A   Partly Cloudy
11:15 PM 8.6 °F -4.7 °F -0.4 °F 67% 30.11 in 10.0 mi East 9.2 mph - N/A   Scattered Clouds
11:30 PM 8.6 °F -5.5 °F -0.4 °F 67% 30.11 in 10.0 mi East 10.4 mph - N/A   Mostly Cloudy
11:55 PM 8.6 °F -5.5 °F -2.2 °F 62% 30.11 in 10.0 mi East 10.4 mph - N/A   Mostly Cloudy